Taylorville, IL

2:06 AM CDT on August 17, 2017 (GMT -0500)
Taylorville Municipal

Weather History for KTAZ - February, 2014

Change the Weather History Date:

Sunday, February 9, 2014

  Actual Average (KSPI) Record (KSPI)
Temperature  
Mean Temperature 16 °F -  
Max Temperature 23 °F 34 °F 66 °F (1943)
Min Temperature 8 °F 15 °F -21 °F (1899)
Degree Days  
Heating Degree Days 50    
Moisture  
Dew Point 13 °F    
Average Humidity 79    
Maximum Humidity 93    
Minimum Humidity 63    
Precipitation  
Precipitation 0.00 in - - ()
Sea Level Pressure  
Sea Level Pressure 30.22 in    
Wind  
Wind Speed 7 mph (NW)    
Max Wind Speed 16 mph    
Max Gust Speed 18 mph    
Visibility 9 miles    
Events Snow    
Averages and records for this station are not official NWS values.
T = Trace of Precipitation, MM = Missing Value Source: NWS Daily Summary

Daily Weather History Graph

Daily Weather History Graph

Search for Another Location

Airport or City:

Trip Planner

Search our weather history database for the weather conditions in past years. The results will help you decide how hot, cold, wet, or windy it might be!

Date:

Astronomy

Feb. 09, 2014 Rise Set
Actual Time 6:56 AM CST 5:27 PM CST
Civil Twilight 6:28 AM CST 5:54 PM CST
Nautical Twilight 5:56 AM CST 6:26 PM CST
Astronomical Twilight 5:25 AM CST 6:58 PM CST
Moon 1:07 PM CST (2/9) 3:01 AM CST (2/9)
Length of Visible Light 11h 26m
Length of Day
10h 30m
Waxing Gibbous, 77% of the Moon is Illuminated
Feb 9
Waxing Gibbous
Feb 14
Full
Feb 22
Last Quarter
Mar 1
New
Mar 8
First Quarter

Hourly Weather History & Observations

Time (CST) Temp. Windchill Dew Point Humidity Pressure Visibility Wind Dir Wind Speed Gust Speed Precip Events Conditions
12:15 AM 23.0 °F 18.4 °F 19.4 °F 86% 30.14 in 10.0 mi SSW 3.5 mph - N/A   Overcast
12:35 AM 23.0 °F 18.4 °F 19.4 °F 86% 30.15 in 10.0 mi WSW 3.5 mph - N/A   Overcast
12:55 AM 23.0 °F 17.0 °F 19.4 °F 86% 30.16 in 10.0 mi WSW 4.6 mph - N/A   Overcast
1:15 AM 23.0 °F 17.0 °F 19.4 °F 86% 30.16 in 10.0 mi West 4.6 mph - N/A   Overcast
1:35 AM 23.0 °F 17.0 °F 19.4 °F 86% 30.14 in 10.0 mi SW 4.6 mph - N/A   Overcast
1:55 AM 23.0 °F 17.0 °F 19.4 °F 86% 30.13 in 10.0 mi SW 4.6 mph - N/A   Overcast
2:15 AM 23.0 °F 17.0 °F 19.4 °F 86% 30.13 in 10.0 mi SSW 4.6 mph - N/A   Overcast
2:35 AM 23.0 °F 17.0 °F 19.4 °F 86% 30.14 in 10.0 mi West 4.6 mph - N/A   Overcast
2:55 AM 23.0 °F - 19.4 °F 86% 30.13 in 10.0 mi Calm Calm - N/A   Overcast
3:15 AM 23.0 °F - 19.4 °F 86% 30.12 in 10.0 mi Calm Calm - N/A   Overcast
3:35 AM 23.0 °F 18.4 °F 19.4 °F 86% 30.12 in 10.0 mi SW 3.5 mph - N/A   Overcast
3:55 AM 23.0 °F 15.8 °F 19.4 °F 86% 30.14 in 7.0 mi West 5.8 mph - N/A Snow Light Snow
4:15 AM 23.0 °F 17.0 °F 19.4 °F 86% 30.13 in 4.0 mi West 4.6 mph - N/A Snow Light Snow
4:35 AM 23.0 °F 14.7 °F 21.2 °F 93% 30.15 in 7.0 mi West 6.9 mph - N/A Snow Light Snow
4:55 AM 23.0 °F 14.7 °F 21.2 °F 93% 30.16 in 7.0 mi WNW 6.9 mph - N/A Snow Light Snow
5:15 AM 23.0 °F 15.8 °F 21.2 °F 93% 30.14 in 1.8 mi WNW 5.8 mph - N/A Snow Light Snow
5:35 AM 23.0 °F 13.9 °F 21.2 °F 93% 30.14 in 2.5 mi WNW 8.1 mph - N/A Snow Light Snow
5:55 AM 23.0 °F 15.8 °F 21.2 °F 93% 30.14 in 2.5 mi NW 5.8 mph - N/A Snow Light Snow
6:15 AM 21.2 °F 9.5 °F 19.4 °F 93% 30.16 in 3.0 mi NNW 11.5 mph - N/A Snow Light Snow
6:35 AM 21.2 °F 9.5 °F 19.4 °F 93% 30.16 in 7.0 mi NNW 11.5 mph - N/A   Overcast
6:55 AM 21.2 °F 13.6 °F 17.6 °F 86% 30.16 in 7.0 mi NW 5.8 mph - N/A   Overcast
7:15 AM 21.2 °F 14.9 °F 17.6 °F 86% 30.16 in 10.0 mi NW 4.6 mph - N/A   Mostly Cloudy
7:35 AM 17.6 °F 8.2 °F 15.8 °F 93% 30.16 in 7.0 mi NNW 6.9 mph - N/A   Scattered Clouds
7:55 AM 17.6 °F 7.3 °F 14.0 °F 86% 30.19 in 7.0 mi NW 8.1 mph - N/A   Scattered Clouds
8:15 AM 21.2 °F 8.9 °F 17.6 °F 86% 30.20 in 7.0 mi NW 12.7 mph - N/A   Mostly Cloudy
8:35 AM 21.2 °F 7.3 °F 17.6 °F 86% 30.21 in 7.0 mi NW 16.1 mph - N/A   Overcast
8:55 AM 19.4 °F 5.5 °F 15.8 °F 86% 30.20 in 7.0 mi NNW 15.0 mph 18.4 mph N/A   Overcast
9:15 AM 19.4 °F 6.6 °F 15.8 °F 86% 30.21 in 10.0 mi NNW 12.7 mph - N/A   Overcast
9:35 AM 19.4 °F 6.6 °F 14.0 °F 80% 30.21 in 10.0 mi NNW 12.7 mph - N/A   Scattered Clouds
9:55 AM 21.2 °F 9.5 °F 14.0 °F 74% 30.21 in 10.0 mi NNW 11.5 mph - N/A   Scattered Clouds
10:15 AM 21.2 °F 10.1 °F 14.0 °F 74% 30.22 in 10.0 mi NNW 10.4 mph - N/A   Mostly Cloudy
10:35 AM 21.2 °F 9.5 °F 14.0 °F 74% 30.22 in 10.0 mi NNW 11.5 mph - N/A   Overcast
10:55 AM 21.2 °F 9.5 °F 14.0 °F 74% 30.22 in 10.0 mi NNW 11.5 mph - N/A   Mostly Cloudy
11:15 AM 19.4 °F 7.2 °F 14.0 °F 80% 30.22 in 10.0 mi North 11.5 mph - N/A   Clear
11:35 AM 19.4 °F 7.9 °F 14.0 °F 80% 30.23 in 10.0 mi North 10.4 mph - N/A   Clear
11:55 AM 19.4 °F 7.9 °F 14.0 °F 80% 30.22 in 10.0 mi North 10.4 mph - N/A   Clear
12:15 PM 19.4 °F 8.6 °F 14.0 °F 80% 30.21 in 10.0 mi North 9.2 mph - N/A   Clear
12:35 PM 19.4 °F 7.9 °F 12.2 °F 74% 30.21 in 10.0 mi North 10.4 mph - N/A   Scattered Clouds
12:55 PM 19.4 °F 7.2 °F 12.2 °F 74% 30.21 in 10.0 mi NNW 11.5 mph - N/A   Scattered Clouds
1:15 PM 21.2 °F 9.5 °F 12.2 °F 68% 30.20 in 10.0 mi North 11.5 mph - N/A   Scattered Clouds
1:35 PM 19.4 °F 7.2 °F 12.2 °F 74% 30.20 in 10.0 mi NNW 11.5 mph - N/A   Clear
1:55 PM 19.4 °F 7.9 °F 12.2 °F 74% 30.21 in 10.0 mi North 10.4 mph - N/A   Scattered Clouds
2:15 PM 19.4 °F 7.2 °F 12.2 °F 74% 30.21 in 10.0 mi North 11.5 mph - N/A   Scattered Clouds
2:35 PM 19.4 °F 7.9 °F 12.2 °F 74% 30.23 in 10.0 mi NNW 10.4 mph - N/A   Overcast
2:55 PM 21.2 °F 9.5 °F 10.4 °F 63% 30.24 in 10.0 mi NNW 11.5 mph - N/A   Overcast
3:15 PM 19.4 °F 6.6 °F 10.4 °F 68% 30.25 in 10.0 mi WNW 12.7 mph - N/A   Overcast
3:35 PM 19.4 °F 7.2 °F 10.4 °F 68% 30.26 in 10.0 mi WNW 11.5 mph - N/A   Overcast
3:55 PM 19.4 °F 7.9 °F 10.4 °F 68% 30.24 in 10.0 mi NW 10.4 mph - N/A   Overcast
4:15 PM 19.4 °F 9.5 °F 10.4 °F 68% 30.26 in 10.0 mi NW 8.1 mph - N/A   Overcast
4:35 PM 19.4 °F 7.9 °F 10.4 °F 68% 30.27 in 10.0 mi NNW 10.4 mph - N/A   Overcast
4:55 PM 19.4 °F 7.9 °F 10.4 °F 68% 30.26 in 10.0 mi NNW 10.4 mph - N/A   Overcast
5:15 PM 19.4 °F 7.2 °F 10.4 °F 68% 30.28 in 10.0 mi NNW 11.5 mph - N/A   Overcast
5:35 PM 17.6 °F 6.4 °F 10.4 °F 73% 30.28 in 10.0 mi NNW 9.2 mph - N/A   Overcast
5:55 PM 17.6 °F 5.0 °F 8.6 °F 68% 30.28 in 10.0 mi NNW 11.5 mph - N/A   Overcast
6:15 PM 17.6 °F 7.3 °F 8.6 °F 68% 30.29 in 10.0 mi NNW 8.1 mph - N/A   Overcast
6:35 PM 17.6 °F 7.3 °F 8.6 °F 68% 30.30 in 10.0 mi NNW 8.1 mph - N/A   Mostly Cloudy
6:55 PM 17.6 °F 8.2 °F 8.6 °F 68% 30.30 in 10.0 mi NW 6.9 mph - N/A   Overcast
7:15 PM 17.6 °F 5.7 °F 8.6 °F 68% 30.31 in 10.0 mi NW 10.4 mph - N/A   Mostly Cloudy
7:35 PM 15.8 °F 4.2 °F 8.6 °F 73% 30.31 in 10.0 mi NNW 9.2 mph - N/A   Scattered Clouds
7:55 PM 14.0 °F 2.0 °F 6.8 °F 73% 30.31 in 10.0 mi NNW 9.2 mph - N/A   Scattered Clouds
8:15 PM 12.2 °F 1.7 °F 5.0 °F 73% 30.30 in 10.0 mi NNW 6.9 mph - N/A   Scattered Clouds
8:35 PM 12.2 °F 1.7 °F 5.0 °F 73% 30.31 in 10.0 mi NNW 6.9 mph - N/A   Mostly Cloudy
8:55 PM 12.2 °F 2.9 °F 6.8 °F 79% 30.32 in 10.0 mi NNW 5.8 mph - N/A   Overcast
9:15 PM 14.0 °F 3.9 °F 8.6 °F 79% 30.31 in 10.0 mi NNW 6.9 mph - N/A   Overcast
9:35 PM 14.0 °F 2.0 °F 8.6 °F 79% 30.32 in 10.0 mi NNW 9.2 mph - N/A   Overcast
9:55 PM 14.0 °F 1.2 °F 8.6 °F 79% 30.33 in 10.0 mi NNW 10.4 mph - N/A   Overcast
10:15 PM 14.0 °F 1.2 °F 6.8 °F 73% 30.33 in 10.0 mi NNW 10.4 mph - N/A   Overcast
10:35 PM 12.2 °F -3.1 °F 5.0 °F 73% 30.33 in 10.0 mi NNW 13.8 mph - N/A   Overcast
10:55 PM 10.4 °F -4.8 °F 3.2 °F 73% 30.33 in 10.0 mi NNW 12.7 mph - N/A   Overcast
11:15 PM 10.4 °F -3.3 °F 3.2 °F 73% 30.34 in 10.0 mi NNW 10.4 mph - N/A   Overcast
11:35 PM 8.6 °F -5.5 °F 3.2 °F 79% 30.34 in 10.0 mi NW 10.4 mph - N/A   Overcast
11:55 PM 8.6 °F -5.5 °F 1.4 °F 73% 30.36 in 10.0 mi NW 10.4 mph - N/A   Scattered Clouds